Wind_Speed
35 36 37 39 40 42 40 40 35 32 31 29 31 29 28 28 23 27 27 27 27 26 21 20 24 21 16 15 18 17 22 27 24 24 21 18 17 14 17 18 17 15 11 17 20
40 39 39 39 40 43 44 44 42 38 37 33 33 34 34 34 31 31 27 30 33 30 28 24 25 23 23 23 21 23 27 30 24 23 22 21 20 20 21 20 13 17 18 20 21
39 39 39 38 39 40 44 46 44 42 41 37 37 38 37 36 34 32 31 29 34 34 32 25 24 24 26 24 25 25 32 29 26 24 24 23 22 19 20 18 16 10 7 19 19
38 37 37 37 38 38 39 41 41 41 39 38 39 39 37 35 30 26 28 26 29 35 35 33 28 29 29 29 28 31 31 31 31 27 26 24 23 22 19 18 17 15 15 18 23
37 37 36 36 36 38 38 39 39 41 39 39 38 38 37 41 46 36 35 34 30 30 32 36 32 31 33 31 29 31 31 31 28 26 26 25 25 23 21 17 15 14 17 19 19
36 36 37 37 37 38 38 37 38 39 38 37 39 40 41 50 39 34 28 30 34 32 30 29 36 32 33 30 31 31 29 29 28 28 26 27 25 23 23 18 15 17 20 16 18
38 38 38 38 38 38 37 37 37 36 37 38 40 41 46 51 38 28 28 33 29 32 31 28 28 25 27 32 29 30 33 31 29 27 29 25 28 26 21 21 21 19 18 20 23
42 41 41 40 39 38 38 36 36 35 33 34 38 41 53 43 32 37 34 34 29 27 28 23 20 30 29 25 28 31 31 35 30 29 30 28 31 22 20 22 23 22 21 21 21
45 44 44 43 42 39 39 36 35 35 33 34 36 37 50 43 41 34 36 35 21 22 23 21 23 23 25 29 31 32 33 33 28 25 27 29 28 22 20 20 21 20 21 24 22
44 46 47 46 45 41 38 36 35 34 33 36 35 34 35 35 27 25 35 37 36 30 23 21 26 28 30 31 42 31 30 31 29 24 24 23 24 22 22 22 25 27 26 23 23
29 33 39 44 46 44 38 35 32 34 40 42 38 41 24 9 12 25 26 33 33 27 31 25 32 40 38 41 35 29 28 30 27 21 13 22 27 21 20 25 29 30 27 25 26
26 28 28 27 32 40 40 37 27 29 37 41 39 45 40 26 17 22 20 26 34 40 28 29 42 35 30 30 32 33 31 30 25 22 21 21 22 21 26 31 28 25 23 23 25
27 27 27 24 24 26 32 31 28 35 36 48 47 43 37 35 39 26 27 28 35 38 38 42 38 30 30 30 33 33 33 29 28 22 22 22 23 24 29 23 21 22 20 15 23
28 27 26 24 24 20 10 16 23 24 19 37 31 50 44 36 45 37 27 29 33 39 39 40 32 32 33 35 31 34 29 27 23 21 21 19 20 24 22 22 15 14 16 19 22
31 30 27 23 18 12 11 15 9 11 7 17 24 29 30 47 26 42 39 35 35 33 36 50 37 37 38 34 33 33 25 24 20 23 22 21 21 26 19 23 16 5 9 19 19
32 31 30 25 21 15 16 20 12 11 15 16 15 36 27 40 43 8 29 41 33 31 36 38 33 34 39 32 29 29 24 19 19 21 18 21 23 26 24 8 2 7 10 14 17
31 30 29 27 21 14 20 13 15 22 24 18 27 30 30 33 40 32 35 45 46 42 46 36 42 38 34 36 29 29 22 18 13 15 12 23 24 28 14 14 8 9 6 10 15
29 28 27 25 21 18 14 19 22 32 45 7 25 27 32 29 35 41 33 45 49 44 30 40 34 44 39 37 36 33 28 20 11 11 17 27 24 8 6 7 7 7 7 10 18
26 23 22 20 19 20 22 29 38 35 20 39 26 30 32 30 34 40 49 50 53 51 42 39 44 34 40 35 32 31 38 29 25 22 17 12 14 14 13 6 8 8 9 12 18
19 20 17 13 13 22 24 33 30 34 41 28 26 20 29 33 38 42 51 52 48 51 45 35 30 36 36 33 32 34 31 26 27 15 13 14 18 8 13 5 10 8 6 8 12
15 18 8 10 14 25 34 37 33 34 34 31 34 32 30 29 27 46 46 44 46 48 47 47 27 31 35 47 37 36 34 31 24 25 11 9 12 13 12 11 7 6 8 3 6
14 11 8 15 16 27 35 32 26 32 32 32 30 29 28 27 27 28 46 48 38 46 51 53 25 31 42 40 40 35 38 30 23 21 18 16 5 11 11 7 6 13 6 1 4
12 14 16 14 14 17 28 25 26 28 34 30 28 26 23 25 19 19 29 41 48 41 53 51 47 24 29 40 39 36 38 37 28 19 23 16 17 12 12 12 8 10 9 3 2
13 12 11 14 20 20 21 25 26 23 30 30 28 26 26 25 17 20 18 22 37 43 42 50 42 45 24 35 42 42 39 38 36 29 24 24 19 15 13 12 11 11 12 7 2
12 7 13 13 16 16 20 25 26 25 17 22 29 26 25 25 20 17 18 25 23 44 42 51 52 39 37 33 40 38 37 38 40 36 32 28 22 18 17 12 12 16 13 14 10
13 13 12 17 13 17 23 16 23 22 23 20 22 26 22 25 22 25 24 16 18 23 44 46 49 40 39 36 39 39 37 36 39 36 31 28 25 19 14 9 14 18 15 15 17
8 10 14 17 15 14 14 13 8 12 17 17 18 23 21 26 25 26 26 29 26 18 11 39 48 47 32 34 33 38 40 37 37 37 35 33 27 20 16 17 14 20 13 15 18
Wind_Direction
267 269 266 262 262 261 261 262 261 262 265 268 269 268 268 269 274 264 258 261 262 257 255 258 262 256 247 256 235 246 254 259 268 282 293 289 284 294 299 271 278 265 255 252 278
270 270 267 263 261 260 260 261 263 263 265 267 267 266 268 271 274 274 275 266 259 259 256 252 258 253 232 240 235 236 245 253 268 280 291 288 289 286 289 276 273 268 265 288 287
269 267 265 263 260 258 257 259 262 264 266 267 266 265 266 270 275 278 271 270 261 259 259 253 255 245 234 238 241 242 246 258 266 277 280 277 278 283 283 276 274 266 281 272 280
270 266 265 263 263 260 254 254 257 260 262 264 263 260 258 261 257 262 271 268 258 256 256 253 233 228 233 239 245 250 254 260 265 268 275 275 273 275 273 275 270 276 266 262 275
268 269 269 265 263 263 262 257 256 256 258 259 261 260 258 256 266 262 261 263 263 260 257 256 227 231 234 240 250 253 258 260 263 267 268 271 267 273 269 265 275 268 264 252 256
268 266 266 267 265 264 261 259 258 258 258 259 258 256 253 256 265 255 257 258 259 262 265 253 227 229 243 244 247 257 260 263 266 261 269 267 265 267 266 256 269 262 266 266 267
269 267 265 264 264 263 263 263 261 259 256 255 253 253 250 258 256 254 251 260 258 264 260 250 242 215 242 249 251 256 260 261 259 258 262 268 262 256 265 260 269 271 269 270 263
270 267 266 265 264 262 261 260 260 260 258 257 255 256 257 255 253 249 252 256 252 250 245 235 237 238 235 247 249 251 254 258 259 258 260 250 254 259 263 261 269 264 272 279 276
269 268 266 265 263 263 263 262 259 258 257 255 257 259 261 263 253 253 248 250 235 237 232 237 230 239 237 235 247 246 252 251 263 253 256 247 246 253 263 270 266 260 272 275 264
272 270 268 265 262 261 260 262 262 260 256 253 250 255 253 273 265 248 241 240 232 236 243 231 223 227 231 223 234 235 241 244 252 259 267 236 251 256 258 271 269 268 269 276 261
299 288 276 270 267 263 260 257 260 262 256 249 255 258 241 296 260 237 227 226 219 226 227 217 216 220 221 226 233 240 248 247 259 267 257 245 252 258 266 275 275 280 277 274 261
301 301 301 300 285 264 255 251 240 238 252 251 242 246 244 223 245 222 210 217 210 216 217 217 224 223 227 229 230 238 247 255 264 270 271 271 267 269 277 276 276 279 274 271 250
306 303 299 302 300 305 262 250 236 237 257 250 250 246 247 227 234 228 223 213 210 212 212 217 225 223 225 226 227 234 241 250 259 267 264 271 270 268 279 286 276 273 270 262 237
300 298 300 300 303 319 284 241 232 238 270 256 255 250 239 231 235 226 217 211 213 217 215 227 227 223 224 226 225 233 235 243 253 265 268 268 288 278 288 281 272 262 264 240 248
294 293 293 291 300 275 228 181 186 200 262 257 247 245 239 224 233 228 214 211 214 213 211 226 220 223 224 226 226 233 237 243 246 251 261 267 270 277 286 282 260 278 275 249 238
293 287 284 288 277 261 247 228 203 187 234 235 228 197 193 207 213 227 211 204 215 216 223 231 224 224 226 229 228 229 235 242 247 254 251 255 260 273 271 293 256 288 281 231 237
293 287 279 277 270 233 209 181 200 220 229 234 198 191 200 204 209 206 197 198 204 208 223 221 225 224 224 225 224 219 220 225 228 238 252 256 248 251 269 280 282 274 271 245 256
294 290 283 270 252 217 214 199 219 230 225 209 212 204 210 207 215 204 200 203 207 209 214 217 221 218 214 222 217 208 211 218 226 223 245 243 242 247 195 191 236 251 241 237 262
296 292 278 272 244 203 200 213 223 231 245 234 260 272 216 219 218 208 210 208 205 203 211 209 226 218 216 215 214 208 213 219 243 249 283 278 231 218 216 213 226 223 224 241 264
303 288 281 262 254 197 221 223 239 241 246 271 282 284 286 225 221 206 210 215 214 213 206 218 218 218 213 211 212 213 209 210 230 244 266 276 274 241 159 199 173 199 215 270 289
296 289 265 257 205 215 224 231 243 246 250 260 266 289 287 284 257 216 215 218 216 212 208 215 226 216 210 206 202 207 219 207 225 226 226 243 260 264 170 174 179 220 207 282 268
291 290 300 238 215 226 233 238 260 263 260 264 265 267 280 292 294 272 217 218 214 210 205 209 225 234 211 208 209 212 213 203 214 221 244 246 248 154 152 180 191 166 197 13 261
293 279 278 233 224 255 249 269 262 262 261 260 266 262 271 294 302 254 241 218 212 206 207 206 221 226 223 213 198 211 216 216 215 219 217 233 244 209 185 182 192 176 194 110 356
294 289 279 254 265 269 268 269 273 262 261 255 270 267 278 281 269 262 258 239 212 214 207 206 214 219 218 200 190 199 213 215 216 218 224 233 240 191 159 193 211 216 204 210 299
286 272 309 287 286 276 274 263 276 281 263 245 263 259 260 273 276 274 281 283 241 210 208 202 211 217 220 218 203 205 211 216 217 218 222 225 233 213 210 207 217 205 202 206 210
279 284 270 290 295 292 279 273 259 272 278 276 276 255 262 263 267 295 319 318 242 226 197 200 211 213 214 221 215 209 213 218 221 219 219 226 229 226 227 216 200 203 206 202 215
282 279 295 298 301 304 276 288 259 293 284 280 287 258 272 260 279 271 286 281 269 266 209 194 201 207 222 214 225 210 208 213 220 222 216 219 222 221 223 219 207 190 226 203 208
Height
3139 3139 3139 3139 3141 3142 3142 3143 3144 3145 3147 3148 3149 3150 3150 3150 3150 3149 3152 3155 3155 3155 3155 3156 3156 3157 3159 3159 3162 3165 3164 3159 3158 3156 3154 3154 3153 3151 3151 3147 3149 3148 3146 3145 3142
3130 3131 3131 3131 3132 3133 3134 3136 3138 3138 3141 3141 3142 3144 3144 3145 3144 3145 3147 3148 3150 3151 3151 3151 3152 3155 3157 3156 3159 3160 3158 3154 3157 3154 3152 3151 3150 3149 3149 3146 3144 3142 3140 3140 3138
3122 3122 3123 3123 3124 3125 3127 3128 3129 3131 3132 3133 3136 3137 3137 3137 3137 3137 3141 3143 3144 3144 3146 3147 3150 3150 3152 3155 3154 3154 3151 3153 3152 3152 3150 3148 3147 3146 3144 3143 3142 3141 3141 3134 3135
3114 3114 3115 3115 3115 3116 3118 3119 3121 3122 3124 3126 3127 3128 3129 3129 3132 3130 3135 3136 3138 3138 3139 3141 3144 3146 3145 3147 3151 3151 3148 3148 3148 3148 3146 3144 3143 3143 3142 3141 3140 3138 3136 3133 3129
3107 3106 3106 3106 3106 3107 3109 3110 3112 3114 3115 3117 3117 3118 3119 3116 3119 3125 3129 3130 3130 3131 3133 3134 3136 3139 3140 3141 3146 3144 3143 3143 3144 3142 3141 3139 3138 3138 3137 3137 3137 3135 3133 3130 3128
3098 3098 3097 3097 3098 3099 3099 3101 3102 3103 3105 3107 3107 3108 3108 3101 3120 3120 3120 3123 3123 3124 3125 3128 3128 3134 3136 3137 3139 3140 3139 3138 3138 3137 3137 3135 3134 3134 3133 3133 3132 3131 3130 3128 3125
3089 3089 3089 3089 3089 3090 3091 3092 3093 3094 3096 3099 3099 3098 3094 3096 3110 3111 3114 3111 3117 3116 3118 3122 3126 3128 3133 3132 3135 3134 3133 3132 3131 3132 3131 3131 3128 3128 3130 3129 3130 3127 3126 3125 3123
3079 3079 3079 3080 3080 3081 3082 3084 3084 3086 3089 3089 3088 3086 3076 3090 3101 3103 3105 3107 3109 3110 3112 3117 3121 3121 3125 3129 3129 3128 3128 3124 3124 3126 3124 3125 3121 3125 3126 3125 3124 3123 3122 3120 3117
3068 3068 3068 3069 3070 3072 3072 3074 3075 3076 3079 3080 3081 3080 3071 3081 3087 3098 3099 3101 3105 3105 3107 3112 3115 3117 3121 3122 3122 3121 3119 3119 3118 3118 3116 3116 3116 3120 3121 3121 3119 3118 3117 3116 3115
3058 3057 3056 3057 3058 3061 3063 3065 3066 3067 3069 3068 3071 3071 3073 3074 3079 3083 3088 3092 3096 3100 3102 3106 3109 3111 3112 3115 3104 3112 3112 3113 3112 3111 3110 3110 3112 3114 3114 3114 3114 3112 3111 3110 3108
3047 3046 3045 3045 3047 3050 3055 3057 3062 3062 3055 3057 3061 3058 3069 3069 3070 3073 3080 3083 3090 3095 3094 3099 3102 3096 3099 3101 3108 3110 3108 3106 3105 3105 3109 3108 3107 3108 3110 3109 3108 3107 3106 3105 3102
3043 3041 3038 3037 3036 3038 3042 3044 3051 3049 3042 3043 3049 3047 3056 3065 3066 3068 3074 3075 3080 3081 3091 3095 3084 3091 3097 3102 3104 3105 3105 3103 3102 3102 3103 3102 3101 3103 3104 3102 3101 3100 3100 3100 3096
3036 3034 3033 3033 3031 3029 3031 3039 3044 3040 3035 3032 3034 3038 3047 3057 3054 3059 3065 3069 3071 3077 3079 3078 3078 3090 3093 3095 3097 3099 3100 3101 3100 3100 3100 3099 3097 3098 3097 3096 3096 3096 3094 3094 3092
3030 3028 3027 3028 3029 3026 3024 3030 3033 3035 3033 3019 3020 3017 3032 3043 3039 3051 3059 3064 3066 3067 3074 3072 3081 3083 3086 3087 3092 3091 3095 3096 3097 3098 3097 3097 3090 3093 3093 3091 3089 3090 3090 3089 3088
3023 3021 3021 3022 3023 3023 3023 3023 3029 3034 3034 3010 3007 3012 3020 3020 3032 3032 3046 3055 3055 3062 3071 3054 3070 3074 3076 3080 3085 3086 3090 3091 3092 3094 3094 3095 3093 3088 3088 3085 3085 3086 3086 3085 3084
3016 3014 3014 3016 3017 3018 3017 3022 3027 3035 3011 2999 3005 3004 3011 3013 3020 3034 3034 3046 3055 3059 3058 3059 3067 3068 3070 3075 3078 3083 3085 3087 3090 3090 3087 3089 3090 3085 3083 3082 3082 3084 3083 3082 3082
3007 3005 3005 3007 3011 3010 3013 3019 3025 3012 2995 2994 2999 3001 3006 3010 3017 3024 3028 3034 3038 3047 3042 3054 3054 3060 3065 3069 3072 3076 3079 3083 3086 3085 3081 3083 3082 3077 3078 3079 3080 3082 3082 3079 3080
2999 2997 2996 2998 3001 3003 3006 3013 3007 2987 2989 2989 2998 3000 3001 3009 3010 3016 3022 3024 3029 3033 3041 3044 3047 3047 3053 3056 3063 3067 3075 3075 3079 3079 3075 3069 3071 3073 3074 3075 3078 3079 3081 3079 3078
2992 2990 2988 2990 2993 2997 3001 2999 2991 2991 2991 2990 2991 2997 2994 3000 3003 3010 3009 3009 3014 3020 3028 3034 3033 3044 3047 3053 3059 3062 3066 3073 3073 3071 3068 3067 3069 3069 3068 3071 3075 3077 3077 3076 3076
2986 2983 2983 2985 2988 2991 2992 2988 2986 2990 2987 2990 2991 2990 2988 2989 2995 2997 3000 3000 3008 3014 3025 3025 3033 3033 3039 3049 3052 3055 3064 3069 3070 3070 3071 3067 3065 3064 3066 3070 3072 3075 3076 3075 3074
2983 2979 2981 2981 2983 2984 2980 2977 2979 2984 2987 2993 2991 2987 2985 2983 2984 2984 2990 2996 3002 3008 3016 3021 3024 3028 3033 3033 3040 3050 3053 3058 3065 3065 3064 3067 3063 3060 3061 3068 3070 3072 3074 3074 3073
2979 2978 2978 2977 2980 2977 2975 2977 2981 2979 2980 2982 2987 2987 2984 2981 2977 2973 2976 2984 2992 3000 3005 3007 3016 3020 3020 3027 3036 3044 3048 3052 3057 3060 3059 3059 3061 3059 3063 3067 3070 3069 3072 3072 3073
2978 2977 2977 2976 2973 2974 2975 2976 2976 2978 2976 2979 2981 2983 2980 2981 2978 2970 2969 2976 2985 2990 2994 3003 3011 3014 3015 3024 3028 3037 3043 3048 3052 3056 3056 3058 3058 3058 3060 3065 3068 3067 3069 3071 3072
2977 2975 2974 2974 2974 2974 2974 2973 2971 2972 2971 2974 2973 2975 2975 2975 2976 2969 2967 2969 2976 2981 2988 2999 3000 3005 3004 3009 3020 3028 3034 3039 3044 3048 3053 3052 3054 3056 3059 3063 3066 3065 3065 3068 3069
2976 2975 2973 2972 2971 2969 2969 2969 2968 2966 2966 2971 2970 2970 2972 2971 2969 2970 2964 2960 2958 2974 2981 2990 2993 3000 3005 3009 3013 3020 3027 3032 3035 3041 3045 3050 3051 3053 3056 3060 3062 3063 3064 3066 3067
2974 2973 2972 2970 2968 2966 2965 2963 2964 2964 2965 2962 2963 2966 2967 2966 2969 2964 2966 2966 2959 2960 2973 2981 2988 2998 3001 3004 3006 3011 3019 3026 3029 3035 3040 3045 3047 3051 3054 3054 3058 3059 3062 3066 3067
2973 2971 2970 2966 2966 2965 2963 2962 2961 2961 2959 2960 2956 2958 2958 2960 2965 2963 2963 2960 2959 2959 2962 2973 2978 2990 2993 2999 3001 3001 3007 3016 3022 3027 3033 3036 3042 3047 3050 3053 3056 3056 3059 3063 3065